Location: Alma
(38.7220°N, 88.9090°W)
Time: 05:43:14
(UTC-06:00)

Vanguard 2 Rocket - Pass Details

Date: 18 November 2019
Orbit: 554 x 3326 km, 32.9° (Epoch: 06 December)

Event Time Altitude Azimuth Distance (km) Brightness Sun altitude
Rises 08:20:36 0° 263° (W) 4,716 10.2 15.5°
Reaches altitude 10° 08:25:08 10° 243° (WSW) 4,233 10.2 16.1°
Maximum altitude 08:31:31 16° 210° (SSW) 4,373 10.6 17.0°
Drops below altitude 10° 08:39:35 10° 179° (S) 5,525 11.7 18.2°
Sets 08:47:21 0° 162° (SSE) 6,993 12.6 19.2°
